Theta_e
323 323 323 323 323 323 324 323 323 324 324 324 324 323 322 320 318 317 317 317 318 319 319 318 318 318 320 320 320 320 320 320 320 320 319 319 317 316 316 316 316 316 316 316 315 314 313 312 312 310 308 301
321 322 322 322 321 321 321 322 323 322 322 322 322 320 319 317 316 315 315 314 314 317 317 317 317 317 318 319 319 318 319 319 318 318 318 317 315 314 314 314 314 314 314 314 313 312 311 310 309 308 306 299
316 320 320 320 320 320 320 321 320 320 320 318 317 317 316 315 314 313 312 312 312 312 313 313 313 315 317 317 317 317 317 317 317 316 315 315 314 313 312 312 312 312 312 312 311 310 310 308 306 305 302 299
307 316 318 318 318 318 318 318 318 317 315 314 313 312 312 310 308 308 306 307 306 309 311 311 310 312 314 315 314 315 315 315 315 314 313 313 312 311 310 309 309 309 310 310 310 309 308 306 304 298 297 297
304 309 315 315 316 316 316 315 315 314 313 312 311 309 308 304 298 298 299 299 300 305 303 306 310 310 311 311 312 312 313 313 313 313 312 310 310 309 307 306 305 305 307 308 308 307 306 303 297 297 297 297
304 306 309 304 306 306 310 311 311 307 302 307 301 306 302 297 298 295 295 299 305 301 303 302 308 308 309 309 308 310 311 311 311 311 310 309 307 306 305 302 295 296 301 303 304 303 302 297 296 297 297 296
303 303 301 300 301 302 305 304 302 298 301 297 297 299 298 299 295 294 296 297 300 302 306 304 306 306 306 305 304 305 307 307 308 309 308 306 305 303 301 294 293 293 293 294 299 299 296 295 295 296 296 296
301 300 299 298 298 299 298 299 299 297 297 296 295 296 296 296 295 295 295 305 305 303 296 299 304 303 303 303 302 300 297 300 302 302 303 303 301 298 295 292 292 292 292 292 293 293 293 294 294 294 295 295
299 297 296 296 296 296 296 296 295 295 295 294 294 294 296 294 295 294 295 294 293 292 292 291 291 292 291 291 291 297 289 290 291 292 290 291 293 291 292 291 291 292 292 293 293 292 293 293 293 294 294 294
298 296 294 294 294 294 294 295 294 295 295 294 293 294 295 296 294 293 293 292 292 292 292 291 290 290 290 289 289 293 288 289 289 289 289 290 291 290 291 291 291 291 293 292 292 292 292 293 293 293 293 292
296 294 293 293 294 294 294 294 294 294 294 294 293 293 295 294 292 292 292 291 291 291 291 291 290 289 289 288 288 291 288 288 288 288 289 289 289 290 290 290 290 290 291 291 291 291 292 292 292 292 292 292
294 294 294 294 297 295 296 295 294 294 294 294 293 293 294 294 292 292 291 291 291 290 290 290 290 289 288 288 288 290 289 288 287 288 288 289 289 289 289 289 289 290 290 290 290 290 291 291 291 291 291 291
295 295 295 294 294 294 298 295 294 293 294 293 292 293 294 293 291 291 291 291 291 290 290 290 289 288 288 287 287 288 288 288 287 287 287 288 288 288 288 288 288 290 289 289 289 290 290 289 290 290 290 290
295 296 295 294 295 294 298 294 294 293 292 292 292 291 292 292 291 291 291 291 290 289 289 288 289 288 287 287 287 287 287 288 287 287 287 287 288 288 287 287 288 288 288 288 289 288 289 289 289 289 289 289
295 296 295 295 295 295 296 294 294 293 292 291 291 291 292 292 292 291 290 290 289 289 288 288 288 287 287 286 286 287 286 288 288 287 287 287 287 287 286 287 287 288 287 287 287 288 288 288 288 289 289 289
295 295 295 295 295 295 295 294 293 292 291 292 290 290 291 291 291 292 290 290 289 289 288 288 287 287 286 286 286 287 286 287 287 287 286 287 287 287 286 286 287 288 286 286 286 287 287 288 288 288 288 288
295 295 295 295 295 295 295 294 293 291 291 291 291 290 290 290 291 291 290 289 290 291 288 288 287 286 287 286 286 286 287 287 285 286 286 286 287 287 286 286 286 288 286 285 286 286 287 287 287 288 287 288
294 294 295 295 294 295 294 293 292 292 290 291 291 290 290 290 291 290 289 289 289 288 288 287 287 286 286 285 286 286 286 285 285 285 285 286 285 288 286 285 285 285 285 285 285 286 286 286 286 287 287 287
294 294 294 294 293 293 293 292 292 291 290 290 290 290 289 290 291 290 289 289 289 288 288 287 286 286 285 286 286 285 286 284 284 285 285 285 284 284 284 284 287 285 284 284 285 286 286 286 287 287 287 287
294 294 294 293 294 293 292 292 291 290 291 290 290 289 289 289 290 290 289 289 288 287 287 286 286 286 286 286 285 285 285 285 284 285 285 285 284 284 284 285 283 284 284 284 285 285 286 286 287 287 287 287
293 293 293 293 293 293 292 291 290 290 290 290 290 289 288 289 290 289 289 288 288 288 287 286 286 285 286 286 285 284 284 284 285 284 285 285 287 284 283 283 283 283 284 284 285 285 285 286 287 286 286 286
293 293 293 292 292 293 291 291 290 290 290 290 289 288 288 289 290 289 288 288 287 287 286 286 286 285 285 285 284 284 283 283 284 284 284 284 284 284 283 282 282 283 283 285 285 285 285 285 285 285 286 286
293 292 291 290 291 290 290 290 289 289 289 289 289 288 288 289 289 289 288 288 287 286 286 285 285 285 285 285 284 284 283 283 285 285 283 283 282 284 283 282 283 283 283 284 284 284 284 285 285 286 286 287
291 290 290 289 288 289 289 289 289 289 289 289 289 289 288 289 288 288 288 287 287 287 286 285 285 285 285 284 284 283 283 282 283 283 282 282 282 281 284 284 283 283 283 283 282 284 284 284 285 284 285 284
290 290 289 289 290 290 290 289 289 289 289 289 289 289 288 288 288 288 288 287 286 286 287 285 285 285 284 284 284 284 283 283 282 283 283 284 285 282 282 282 282 283 283 282 281 282 282 283 284 285 286 284
291 292 292 291 291 291 290 289 289 288 288 289 289 289 288 288 288 287 287 287 286 286 286 285 284 284 284 284 284 284 284 283 286 284 283 282 281 282 281 281 282 284 282 279 279 279 279 280 282 284 284 283
292 292 292 292 290 291 289 289 290 289 288 289 288 288 288 288 287 287 287 287 287 286 285 285 284 284 284 284 285 284 283 283 283 282 282 282 281 280 281 282 283 282 282 279 280 279 279 276 279 282 280 281
292 292 291 289 289 289 288 287 288 287 287 287 287 287 288 288 288 287 287 287 286 286 285 285 284 284 283 284 284 283 283 282 282 282 281 281 282 281 280 279 280 283 281 280 279 276 277 277 277 275 276 279
291 290 288 287 287 287 286 286 285 285 284 286 287 288 286 287 287 287 287 286 286 286 285 284 284 284 284 283 283 283 282 282 282 282 282 282 282 280 280 279 279 280 282 281 282 279 277 276 275 275 276 279
291 290 288 287 286 285 285 285 285 285 286 285 286 287 288 287 287 287 286 286 286 285 285 284 284 283 283 283 283 283 282 282 281 281 281 281 281 280 280 279 279 278 281 282 283 281 280 279 276 276 278 277
291 289 289 289 288 288 287 287 287 288 288 287 287 288 287 287 287 287 286 285 285 285 285 284 283 283 283 283 283 283 282 281 281 281 281 282 281 281 283 281 278 279 278 278 279 281 281 281 281 280 278 275
Wind_Speed
11 13 13 13 14 14 13 13 14 14 13 13 14 14 14 14 13 13 13 12 12 11 11 11 11 11 11 11 11 11 11 12 12 12 12 12 12 12 12 12 13 13 13 13 14 14 15 15 14 14 10 7
11 12 13 14 14 14 14 14 14 14 14 14 14 14 14 14 14 13 13 12 12 11 10 11 10 11 11 11 10 11 11 11 12 12 12 12 12 12 12 12 12 12 12 13 13 14 14 14 13 12 10 6
6 11 12 14 14 15 15 15 14 14 14 14 14 14 14 13 12 12 12 12 12 12 11 10 10 10 10 10 11 11 11 11 12 12 12 12 12 12 12 12 12 12 12 12 12 13 13 12 10 9 6 5
4 8 11 13 14 15 15 15 15 14 14 14 13 13 13 11 8 9 7 11 8 12 11 9 7 10 10 11 11 11 11 11 12 12 12 12 12 12 13 13 12 12 12 12 13 13 12 11 9 6 5 4
4 4 10 10 12 14 14 14 14 14 12 10 9 9 9 8 6 5 5 6 5 7 4 6 6 10 11 11 11 11 10 10 10 11 11 11 11 12 12 11 11 12 12 13 13 13 12 9 6 6 5 5
4 4 5 5 5 5 8 9 9 8 6 6 5 7 6 4 5 5 4 5 6 4 4 5 8 10 10 10 10 9 9 9 9 9 10 10 11 11 11 10 5 6 8 11 12 11 10 6 5 6 6 6
5 4 4 4 5 4 6 6 6 6 5 4 4 4 4 4 4 4 4 4 4 4 7 6 10 10 10 10 9 8 8 8 8 8 9 10 10 10 9 5 4 4 5 5 8 7 6 5 5 5 6 5
6 5 5 5 5 5 5 5 6 5 4 4 3 4 3 3 3 4 3 6 9 8 5 6 9 10 9 9 8 9 6 7 7 8 9 9 9 6 4 4 4 5 4 5 4 5 5 5 5 5 4 5
7 6 6 6 6 6 6 5 4 4 3 3 3 4 4 3 3 3 5 5 6 6 5 5 5 4 4 3 3 5 3 3 3 4 3 3 5 4 5 5 5 5 5 5 5 6 5 5 4 4 4 5
8 8 7 7 7 6 5 5 5 4 3 3 3 4 5 4 4 5 6 5 5 5 6 6 5 4 4 4 3 2 3 3 3 3 3 3 5 5 4 5 5 5 5 6 6 6 5 6 5 6 5 5
7 8 7 7 7 7 7 5 6 5 4 4 4 5 5 7 6 6 6 6 6 6 6 6 5 4 3 3 2 1 2 2 2 2 3 3 4 4 5 5 5 5 5 4 5 5 5 5 6 6 6 6
8 7 7 7 7 6 6 7 7 6 6 5 6 5 5 5 5 7 7 6 6 6 5 6 5 4 3 3 2 1 1 2 2 3 3 3 4 5 5 5 5 5 4 5 4 5 5 6 6 6 6 6
9 8 7 7 7 7 7 7 7 7 6 6 6 5 5 6 7 6 6 7 6 6 6 5 5 5 4 3 2 2 1 1 1 2 3 3 4 4 5 5 6 5 4 4 4 5 6 5 6 6 7 6
9 9 9 8 8 8 8 7 7 6 7 6 6 6 6 6 6 7 8 7 6 7 7 6 5 5 4 3 2 2 2 1 1 2 2 3 3 4 4 5 4 4 5 5 4 5 6 6 6 6 6 7
11 9 10 9 9 8 8 8 7 7 7 7 6 6 6 6 6 7 7 7 7 6 7 6 6 6 4 3 3 2 2 1 2 2 3 3 3 3 3 4 3 4 5 5 5 4 5 6 6 6 6 6
10 11 10 9 8 9 8 8 7 7 7 7 6 5 7 7 7 7 7 7 7 7 7 6 6 5 5 4 3 3 2 2 1 3 3 3 3 3 3 3 3 3 4 5 5 5 6 5 6 6 6 7
11 10 9 9 9 9 8 8 7 8 8 7 6 6 7 7 7 7 8 8 8 8 7 7 7 6 5 4 3 3 3 3 2 2 3 3 2 3 3 3 3 2 2 3 5 5 6 6 6 6 6 6
10 10 9 8 8 8 8 8 9 8 7 7 7 6 7 7 7 7 7 8 7 7 7 7 6 6 5 4 4 3 3 3 2 3 3 2 2 3 4 4 3 4 5 3 3 4 5 5 6 6 6 5
11 10 10 9 9 8 9 8 8 8 7 7 7 7 7 7 7 7 7 7 8 8 7 7 7 6 6 5 4 4 3 4 2 3 3 2 4 3 4 3 2 3 3 5 6 6 5 7 7 5 6 5
11 11 10 9 8 8 8 8 8 8 8 7 7 7 7 7 7 7 7 7 7 8 7 7 7 6 5 5 4 4 3 3 3 2 3 3 3 4 4 4 4 3 4 4 6 6 6 7 7 7 6 6
10 10 10 10 10 9 8 9 8 7 7 7 7 7 7 7 8 8 8 8 7 7 7 7 6 6 6 5 5 4 3 3 2 3 3 3 3 4 3 4 3 4 4 5 5 6 7 7 7 7 6 6
11 10 9 8 8 8 9 8 7 7 7 8 8 7 8 8 8 8 8 7 7 7 6 6 6 6 5 5 4 3 3 3 2 2 3 3 2 3 3 3 3 4 4 5 6 7 7 8 7 7 6 6
9 8 6 4 6 6 7 6 6 7 8 8 7 8 7 7 7 8 7 7 7 8 7 7 6 6 5 5 5 4 3 3 2 3 2 3 2 2 2 2 1 1 3 5 6 7 8 7 8 7 5 4
8 7 8 9 4 5 8 7 8 7 8 7 8 8 7 7 7 7 7 7 7 7 7 7 7 7 5 5 5 5 4 3 3 4 3 3 3 3 2 1 1 2 3 5 5 8 6 6 8 7 6 4
11 11 8 6 11 12 10 10 8 8 8 8 8 8 8 8 7 7 7 7 7 8 7 7 6 6 5 5 5 5 4 4 3 3 3 3 1 2 3 2 2 2 2 4 6 2 4 6 6 7 4 4
13 14 15 16 15 12 11 10 11 11 9 9 8 9 8 8 6 7 8 8 7 8 8 8 7 7 7 6 6 4 3 3 3 3 3 3 2 1 2 1 2 4 3 5 3 7 9 5 7 4 2 2
14 11 9 10 8 11 7 5 5 5 6 6 8 8 8 8 7 8 7 8 8 9 8 8 8 8 7 6 6 6 5 4 4 3 3 3 4 3 2 2 2 3 4 1 2 2 2 4 9 7 5 2
12 10 6 4 4 4 5 5 4 4 5 5 6 8 8 8 9 9 9 9 8 8 8 8 8 7 7 7 6 6 7 6 5 3 3 3 2 4 4 1 1 2 3 2 3 6 0 2 2 2 4 6
10 10 8 7 7 5 6 5 4 4 5 8 8 7 9 12 10 9 9 9 8 8 9 7 7 8 7 7 7 6 6 6 6 5 4 4 3 3 6 4 2 1 3 3 1 1 1 4 3 1 3 7
12 12 13 12 11 10 8 8 10 14 17 14 14 16 9 7 9 10 9 8 8 7 7 8 8 7 8 8 7 7 6 5 5 4 4 4 3 3 2 6 5 2 1 2 1 1 1 1 2 5 5 4
12 12 12 15 16 15 16 15 13 9 5 9 8 5 9 10 8 9 9 8 7 7 7 7 7 7 7 7 7 6 6 6 6 5 4 3 3 4 5 5 4 4 2 1 2 1 1 2 1 0 3 3
Wind_Direction
159 156 153 150 147 145 145 146 146 145 144 142 139 136 132 128 124 120 117 115 110 103 98 95 91 87 88 89 87 83 82 81 78 75 72 70 65 60 55 49 44 40 36 34 31 28 26 23 21 20 22 17
160 158 156 153 149 149 150 150 150 149 148 146 142 137 133 130 127 122 116 113 109 103 95 90 89 87 89 90 87 83 82 83 80 77 74 72 68 64 59 55 50 45 42 37 33 29 25 21 19 18 21 15
163 160 157 155 153 152 153 152 151 149 148 146 144 140 136 130 122 118 114 108 105 102 95 86 81 82 86 86 81 76 74 72 70 68 65 63 59 55 51 48 45 42 39 36 32 28 24 21 18 18 17 11
165 165 158 159 157 156 155 153 153 151 150 149 143 140 134 128 121 117 113 108 98 98 95 86 88 82 80 77 73 70 70 69 67 65 62 58 54 50 45 39 34 30 30 30 28 25 20 18 17 14 11 6
166 175 161 160 161 158 154 154 154 155 150 141 139 131 129 126 129 132 125 118 114 101 90 67 60 78 74 72 70 70 71 72 72 70 67 63 57 53 48 38 28 21 22 23 23 20 18 18 15 7 3 359
170 183 163 158 159 155 152 151 150 143 145 149 147 141 129 134 139 136 133 125 113 96 77 55 75 78 76 73 67 67 71 74 75 75 72 67 61 55 49 43 31 18 14 16 18 16 16 17 9 1 358 355
175 178 166 167 153 157 145 144 141 151 155 154 154 148 147 141 134 135 126 121 112 98 84 88 88 85 82 76 68 61 59 66 69 69 69 63 59 54 50 45 35 26 14 8 11 12 13 11 4 357 356 350
177 179 177 172 165 160 158 151 156 161 159 164 154 159 162 154 142 125 120 113 100 90 82 74 74 73 63 63 61 55 35 28 41 45 44 54 54 48 47 49 40 29 19 12 4 6 9 4 357 356 349 345
182 180 179 178 173 167 165 159 157 161 161 156 146 156 160 158 140 118 101 100 100 101 98 88 81 70 62 55 39 46 36 29 14 23 23 28 38 40 39 37 30 28 17 8 360 359 357 356 351 347 343 335
178 172 181 182 178 169 168 162 162 159 162 150 158 163 154 149 139 124 116 116 115 111 108 99 91 82 76 56 40 24 35 22 18 13 20 28 34 28 34 38 27 21 23 3 356 351 350 350 345 340 334 333
174 184 186 178 175 167 175 167 163 168 169 176 172 172 163 156 154 138 133 128 126 121 118 113 110 106 97 93 62 26 47 25 8 19 24 32 33 26 32 30 25 18 13 10 356 346 344 345 340 336 332 330
181 183 179 181 177 180 176 167 174 176 179 174 181 176 167 157 153 148 143 140 133 136 124 128 122 126 115 119 110 81 68 49 13 17 24 33 30 30 29 28 20 14 8 2 1 349 342 339 338 334 328 323
181 180 180 181 180 181 179 179 179 176 170 179 183 174 167 162 156 152 146 145 144 137 134 132 131 136 140 137 152 128 79 101 60 33 33 39 41 35 30 26 19 8 4 0 0 356 339 337 335 333 330 325
181 182 183 187 186 182 180 183 174 168 178 181 176 177 172 172 163 161 157 149 148 143 145 142 140 138 147 149 166 150 140 190 131 108 67 55 50 47 35 32 11 14 0 360 355 354 341 334 332 327 325 323
186 180 188 186 183 181 185 174 168 175 175 176 181 176 169 170 166 159 155 151 151 144 146 146 145 150 149 153 184 170 162 193 146 125 95 88 78 60 51 37 17 21 3 350 350 347 341 329 326 324 323 317
184 186 187 183 180 185 179 170 175 174 176 178 180 171 169 171 168 159 158 154 152 150 150 151 150 153 156 172 184 176 159 141 150 113 111 102 98 99 81 58 35 19 14 348 338 337 332 328 323 317 318 317
186 182 182 180 185 182 171 174 173 177 181 177 176 171 171 171 167 164 160 161 157 153 152 150 151 160 169 175 175 165 154 134 117 89 89 78 103 86 77 62 33 19 18 356 334 331 319 322 311 304 311 310
184 181 181 180 180 176 170 176 176 180 177 174 174 172 173 169 169 163 162 158 156 152 152 153 159 163 170 179 168 151 145 119 132 117 107 123 97 70 69 57 28 17 359 343 322 316 308 304 297 303 302 302
184 177 178 177 177 175 176 174 176 175 172 175 175 170 172 171 169 166 165 163 156 158 155 157 162 168 173 169 159 142 153 133 139 133 125 123 89 74 60 54 44 30 360 333 329 320 313 302 302 296 293 297
179 177 176 177 175 171 176 172 175 175 177 173 168 172 172 176 171 169 168 163 160 157 161 161 166 171 162 167 150 141 140 124 121 112 93 60 88 74 41 39 16 27 353 332 315 313 309 298 299 300 301 295
176 170 173 177 176 174 172 175 174 174 168 166 171 176 175 178 175 172 169 166 164 156 160 161 163 165 165 160 150 144 128 111 129 108 83 60 58 86 82 45 12 359 1 330 314 308 305 299 300 296 301 295
173 172 167 172 171 170 176 178 172 168 168 175 177 174 179 179 175 174 170 165 162 154 158 159 158 162 164 154 142 139 130 129 95 89 97 92 59 77 89 59 37 353 341 333 317 312 304 301 295 290 293 291
162 154 149 142 154 167 177 177 175 169 175 178 175 181 177 176 178 174 169 164 161 155 157 157 158 161 165 150 144 138 135 119 106 95 78 109 89 52 92 115 72 4 333 320 312 303 297 295 290 290 285 285
151 150 159 162 154 178 194 186 179 184 182 171 181 180 175 181 180 174 169 165 163 154 157 159 165 162 161 153 146 145 146 154 140 138 118 126 118 82 54 44 48 54 353 310 290 287 292 279 288 291 283 280
163 165 165 177 189 194 189 189 181 182 182 181 184 180 179 180 179 173 168 167 162 163 162 163 162 158 162 154 152 154 166 153 152 150 147 147 143 116 79 26 13 32 35 8 322 260 270 302 279 280 291 275
176 180 182 180 190 187 182 180 184 189 187 186 181 180 178 179 177 176 175 169 170 167 168 165 169 168 167 161 159 160 146 145 148 143 145 147 67 18 111 91 357 359 39 28 23 327 334 326 315 295 329 252
182 183 182 183 177 177 174 193 192 181 174 168 178 184 180 177 178 176 179 178 176 172 176 174 167 171 163 162 158 153 156 154 164 169 170 188 156 111 50 93 39 34 65 124 273 241 323 340 0 336 355 337
179 169 149 119 120 127 126 163 155 132 134 162 168 187 184 186 182 185 184 182 179 178 176 172 172 161 163 167 166 162 161 166 175 173 176 190 204 142 95 83 56 54 66 101 17 11 64 274 113 328 322 320
154 131 116 104 87 88 85 74 129 147 184 186 187 180 192 195 185 183 186 185 185 178 177 173 166 167 166 163 166 160 162 169 175 172 178 178 184 174 142 135 126 23 66 53 52 150 27 340 3 219 260 320
156 161 157 151 152 163 177 182 179 196 196 186 190 198 182 170 186 185 185 186 184 182 172 174 173 167 164 165 166 168 166 155 144 168 178 191 182 178 147 134 125 121 26 98 122 156 131 185 216 313 306 11
162 165 172 176 179 182 187 194 210 208 190 190 191 163 179 186 183 187 183 185 184 182 178 173 170 170 170 165 163 161 151 159 167 169 177 177 188 199 148 119 124 149 170 7 47 90 130 79 90 125 359 330